User: anonymous   Login
Location: Wavehorne
(51.0500°N, 0.8333°E)
Time: 07:15:55
(UTC+00:00)
Language:

Cosmos 841 Rocket - Orbit

View from above orbital plane
View from above orbital plane
View from above satellite
View from above satellite

Ground track
Ground track

The orbit data is extracted from the following two-line orbital elements,

1 09023U 76069B   21265.51134926  .00000061  00000-0  27914-4 0  9993
2 09023  74.0412 100.4047 0018435 242.1886 117.7401 14.39694936368789
Epoch (UTC): 22 September 2021 12:16:20
Eccentricity: 0.0018435
inclination: 74.0412°
perigee height: 746 km
apogee height: 772 km
right ascension of ascending node: 100.4047°
argument of perigee: 242.1886°
revolutions per day: 14.39694936
mean anomaly at epoch: 117.7401°
orbit number at epoch: 36878

The dashed part of the orbit path shows where the satellite is in the earth's shadow,  

DLR